Погода в Сент Лусии

ЮАР     28°23′01″S   32°24′54″E
темп.,
°C
ветер,
м/с
пор.,
м/с
влажн.,
%
обл.,
%
осадки,
мм/ч
давл.,
гПа
погр.,
м
17 августа, ср
ср1723:00+20с12176813 0.0 1014625
02:00+19с11146463 0.0 1012429
05:00+18ссз56565 0.0 1012236
08:00+19ссз444315 0.0 1012197
11:00+22ссв5544100 0.0 1011230
14:00+22св766298 0.0 1007233
17:00+22ссв71275100 0.0 1006216
20:00+23ссв111669100 0.0 1006259
18 августа, чт
чт1823:00+23ссв101469100 0.0 1006243
02:00+20юз81179100 0.0 1007440
05:00+20юз91280100 0.0 1008567
08:00+20юз81078100 0.0 1010697
11:00+21ююз9971100 0.0 1010825
14:00+21ю8970100 0.0 1008745
17:00+21ю896995 0.0 1009908
20:00+21ю8968100 0.0 10121112
19 августа, пт
пт1923:00+21ю7867100 0.0 10131142
02:00+20ю8868100 0.0 10121188
05:00+20ююв776498 0.1 10121346
08:00+20ююв6663100 0.2 1014997
11:00+20ююв6663100 0.1 10131138
14:00+18ююз9981100 1.1 1013882
17:00+15юз13178694 11.9 10171130
20:00+18юз11147363 12.1 10181273
20 августа, сб
сб2023:00+18юз810661 0.2 10171260
02:00+15з57740 0.2 1016235
05:00+15зсз44690 0.0 1016140
08:00+18ссз45600 0.0 1016324
11:00+20с23470 0.0 1017565
14:00+19ю910610 0.0 10191070
17:00+19ю1213540 0.0 10211585
20:00+19ююз1213547 0.0 10251882
21 августа, вс
вс2123:00+19ююз101156100 0.0 10261966
02:00+19ююз8956100 0.0 10271622
05:00+18юз675929 0.0 1028953
08:00+16зюз55630 0.0 1029267
11:00+18юв11550 0.0 1029420
14:00+19св66590 0.0 1026660
17:00+19св89650 0.0 1025838
20:00+20ссв1011670 0.0 10251109